This is the latest recevied weather packets stored in our database for station/object W4OTS. If no packets are shown the sender has not sent any weather packets the latest 10 day(s).
| Time | Temp. | Humidity | Pressure | Rain* | Wind** | Luminosity | Snow |
|---|---|---|---|---|---|---|---|
| 1777756022 | 16.67° C | 50% | 1013.2 hPa | 0 mm | - | 91 W/m² | - |
| 1777755719 | 16.67° C | 52% | 1013.2 hPa | 0 mm | - | 96 W/m² | - |
| 1777755416 | 16.67° C | 50% | 1013.3 hPa | 0 mm | - | 92 W/m² | - |
| 1777755113 | 16.67° C | 51% | 1013.3 hPa | 0 mm | - | 85 W/m² | - |
| 1777754810 | 16.67° C | 50% | 1013.3 hPa | 0 mm | - | 82 W/m² | - |
| 1777754507 | 16.67° C | 48% | 1013.3 hPa | 0 mm | - | 89 W/m² | - |
| 1777754204 | 16.67° C | 53% | 1013.1 hPa | 0 mm | - | 81 W/m² | - |
| 1777753903 | 16.67° C | 52% | 1013 hPa | 0 mm | - | 80 W/m² | - |
| 1777753597 | 16.67° C | 49% | 1013 hPa | 0 mm | - | 78 W/m² | - |
| 1777753295 | 16.67° C | 47% | 1013.1 hPa | 0 mm | - | 87 W/m² | - |
| 1777752991 | 16.67° C | 48% | 1013.4 hPa | 0 mm | - | 91 W/m² | - |
| 1777752688 | 16.67° C | 46% | 1013.2 hPa | 0 mm | - | 98 W/m² | - |
| 1777752384 | 16.67° C | 52% | 1013.3 hPa | 0 mm | - | 104 W/m² | - |
| 1777752081 | 16.67° C | 47% | 1013.3 hPa | 0 mm | - | 92 W/m² | - |
| 1777751780 | 16.67° C | 45% | 1013.4 hPa | 0 mm | - | 85 W/m² | - |
| 1777751475 | 16.67° C | 50% | 1013.6 hPa | 0 mm | - | 79 W/m² | - |
| 1777751172 | 16.67° C | 51% | 1013.6 hPa | 0 mm | - | 77 W/m² | - |
| 1777750868 | 17.22° C | 47% | 1013.6 hPa | 0 mm | - | 85 W/m² | - |
| 1777750566 | 17.22° C | 49% | 1013.9 hPa | 0 mm | - | 106 W/m² | - |
| 1777750262 | 17.22° C | 46% | 1014.1 hPa | 0 mm | - | 124 W/m² | - |
| 1777749958 | 17.22° C | 45% | 1013.9 hPa | 0 mm | - | 121 W/m² | - |
| 1777749656 | 17.78° C | 46% | 1014.1 hPa | 0 mm | - | 88 W/m² | - |
| 1777749352 | 17.22° C | 50% | 1013.9 hPa | 0 mm | - | 107 W/m² | - |
| 1777749050 | 17.22° C | 46% | 1014 hPa | 0 mm | - | 111 W/m² | - |
| 1777748748 | 16.67° C | 50% | 1014.2 hPa | 0 mm | - | 110 W/m² | - |
* Rain latest hour (hover to see other rain measurements)
** Current wind speed in m/s (hover to see current wind gust speed)